Wetterdaten: aktuell Donnerstag, 22.08.2019 13:45
Datum Zeit Temp. A. Temp. A. min Feuchte A. Luftdruck Regen Wind Richtung Richtung Sonnenschein Solar Taupunkt Windchill Windben
22.08.2019 13:45 24,4 C 24,3 C 50 % 1031,6 hPa 0,0 l/m 4,0 km/h (1 Bft) W 279 0 min 0 W/m 13,3 C 24,4 C 12,9 km/h (3 Bft)
22.08.2019 13:40 24,3 C 24,3 C 51 % 1031,6 hPa 0,0 l/m 4,0 km/h (1 Bft) W-NW 294 0 min 0 W/m 13,5 C 24,3 C 9,7 km/h (2 Bft)
22.08.2019 13:35 24,3 C 24,3 C 50 % 1031,7 hPa 0,0 l/m 7,2 km/h (2 Bft) N-NO 24 0 min 0 W/m 13,2 C 24,3 C 17,7 km/h (3 Bft)
22.08.2019 13:30 24,3 C 24,3 C 50 % 1031,7 hPa 0,0 l/m 12,2 km/h (2 Bft) NO 55 0 min 0 W/m 13,2 C 24,3 C 19,3 km/h (3 Bft)
22.08.2019 13:25 24,3 C 24,3 C 53 % 1031,7 hPa 0,0 l/m 6,5 km/h (2 Bft) O-NO 61 0 min 0 W/m 14,1 C 24,3 C 17,7 km/h (3 Bft)
22.08.2019 13:20 24,4 C 24,3 C 51 % 1031,7 hPa 0,0 l/m 5,3 km/h (1 Bft) O 89 0 min 0 W/m 13,6 C 24,4 C 12,9 km/h (3 Bft)
22.08.2019 13:15 24,3 C 24,2 C 52 % 1031,8 hPa 0,0 l/m 6,4 km/h (2 Bft) O-NO 62 0 min 0 W/m 13,8 C 24,3 C 16,1 km/h (3 Bft)
22.08.2019 13:10 24,2 C 23,9 C 52 % 1031,9 hPa 0,0 l/m 5,3 km/h (1 Bft) O-NO 60 0 min 0 W/m 13,7 C 24,2 C 16,1 km/h (3 Bft)
22.08.2019 13:05 24,0 C 24,0 C 52 % 1031,8 hPa 0,0 l/m 4,3 km/h (1 Bft) SO 133 0 min 0 W/m 13,5 C 24,0 C 12,9 km/h (3 Bft)
22.08.2019 13:00 24,1 C 23,8 C 52 % 1031,8 hPa 0,0 l/m 5,7 km/h (1 Bft) SO 130 0 min 0 W/m 13,6 C 24,1 C 12,9 km/h (3 Bft)
22.08.2019 12:55 23,9 C 23,8 C 51 % 1031,9 hPa 0,0 l/m 6,8 km/h (2 Bft) O-NO 60 0 min 0 W/m 13,1 C 23,9 C 14,5 km/h (3 Bft)
22.08.2019 12:50 23,8 C 23,4 C 53 % 1031,9 hPa 0,0 l/m 5,1 km/h (1 Bft) NO 47 0 min 0 W/m 13,6 C 23,8 C 14,5 km/h (3 Bft)
22.08.2019 12:45 23,4 C 23,2 C 58 % 1031,9 hPa 0,0 l/m 6,3 km/h (2 Bft) NW 304 0 min 0 W/m 14,7 C 23,4 C 20,9 km/h (4 Bft)
22.08.2019 12:40 23,3 C 23,3 C 53 % 1032,0 hPa 0,0 l/m 7,5 km/h (2 Bft) N-NW 348 0 min 0 W/m 13,2 C 23,3 C 14,5 km/h (3 Bft)
22.08.2019 12:35 23,4 C 23,3 C 54 % 1032,1 hPa 0,0 l/m 5,9 km/h (2 Bft) N-NO 33 0 min 0 W/m 13,6 C 23,4 C 12,9 km/h (3 Bft)
22.08.2019 12:30 23,3 C 23,1 C 54 % 1032,2 hPa 0,0 l/m 7,2 km/h (2 Bft) N-NO 21 0 min 0 W/m 13,5 C 23,3 C 14,5 km/h (3 Bft)
22.08.2019 12:25 23,1 C 23,0 C 57 % 1032,2 hPa 0,0 l/m 6,2 km/h (2 Bft) W 268 0 min 0 W/m 14,1 C 23,1 C 12,9 km/h (3 Bft)
22.08.2019 12:20 23,0 C 22,9 C 57 % 1032,3 hPa 0,0 l/m 4,6 km/h (1 Bft) O-SO 105 0 min 0 W/m 14,0 C 23,0 C 11,3 km/h (2 Bft)
22.08.2019 12:15 22,9 C 22,8 C 55 % 1032,2 hPa 0,0 l/m 4,9 km/h (1 Bft) N-NO 13 0 min 0 W/m 13,4 C 22,9 C 11,3 km/h (2 Bft)
22.08.2019 12:10 22,8 C 22,8 C 57 % 1032,3 hPa 0,0 l/m 6,4 km/h (2 Bft) O-NO 73 0 min 0 W/m 13,8 C 22,8 C 14,5 km/h (3 Bft)
22.08.2019 12:05 23,0 C 23,0 C 55 % 1032,4 hPa 0,0 l/m 6,7 km/h (2 Bft) O-NO 67 0 min 0 W/m 13,5 C 23,0 C 11,3 km/h (2 Bft)
22.08.2019 12:00 23,2 C 23,2 C 54 % 1032,4 hPa 0,0 l/m 6,1 km/h (2 Bft) O-SO 115 0 min 0 W/m 13,4 C 23,2 C 14,5 km/h (3 Bft)
22.08.2019 11:55 23,2 C 22,9 C 56 % 1032,5 hPa 0,0 l/m 6,6 km/h (2 Bft) O 92 0 min 0 W/m 13,9 C 23,2 C 14,5 km/h (3 Bft)
22.08.2019 11:50 22,9 C 22,7 C 57 % 1032,4 hPa 0,0 l/m 7,8 km/h (2 Bft) O 82 0 min 0 W/m 13,9 C 22,9 C 14,5 km/h (3 Bft)
22.08.2019 11:45 22,8 C 22,6 C 55 % 1032,4 hPa 0,0 l/m 9,4 km/h (2 Bft) NO 54 0 min 0 W/m 13,3 C 22,8 C 22,5 km/h (4 Bft)
22.08.2019 11:40 22,6 C 22,5 C 56 % 1032,4 hPa 0,0 l/m 11,0 km/h (2 Bft) O-NO 71 0 min 0 W/m 13,4 C 22,6 C 24,1 km/h (4 Bft)
22.08.2019 11:35 22,5 C 22,2 C 56 % 1032,4 hPa 0,0 l/m 9,2 km/h (2 Bft) N-NO 24 0 min 0 W/m 13,3 C 22,5 C 17,7 km/h (3 Bft)
22.08.2019 11:30 22,2 C 21,8 C 58 % 1032,4 hPa 0,0 l/m 8,6 km/h (2 Bft) O-NO 78 0 min 0 W/m 13,5 C 22,2 C 17,7 km/h (3 Bft)
22.08.2019 11:25 21,8 C 21,6 C 59 % 1032,5 hPa 0,0 l/m 6,4 km/h (2 Bft) N-NO 16 0 min 0 W/m 13,4 C 21,8 C 12,9 km/h (3 Bft)
22.08.2019 11:20 21,6 C 21,4 C 60 % 1032,5 hPa 0,0 l/m 6,0 km/h (2 Bft) SO 138 0 min 0 W/m 13,5 C 21,6 C 14,5 km/h (3 Bft)
22.08.2019 11:15 21,4 C 21,4 C 61 % 1032,5 hPa 0,0 l/m 5,7 km/h (1 Bft) O 85 0 min 0 W/m 13,6 C 21,4 C 12,9 km/h (3 Bft)
22.08.2019 11:10 21,4 C 21,4 C 60 % 1032,5 hPa 0,0 l/m 10,1 km/h (2 Bft) O-NO 65 0 min 0 W/m 13,3 C 21,4 C 17,7 km/h (3 Bft)
22.08.2019 11:05 21,4 C 21,4 C 59 % 1032,5 hPa 0,0 l/m 11,0 km/h (2 Bft) O 88 0 min 0 W/m 13,0 C 21,4 C 19,3 km/h (3 Bft)
22.08.2019 11:00 21,6 C 21,6 C 59 % 1032,6 hPa 0,0 l/m 12,3 km/h (3 Bft) NO 50 0 min 0 W/m 13,2 C 21,6 C 22,5 km/h (4 Bft)
22.08.2019 10:55 21,8 C 21,7 C 59 % 1032,6 hPa 0,0 l/m 10,3 km/h (2 Bft) NO 43 0 min 0 W/m 13,4 C 21,8 C 20,9 km/h (4 Bft)
22.08.2019 10:50 21,7 C 21,5 C 61 % 1032,6 hPa 0,0 l/m 5,0 km/h (1 Bft) SO 141 0 min 0 W/m 13,8 C 21,7 C 14,5 km/h (3 Bft)
22.08.2019 10:45 21,5 C 21,3 C 63 % 1032,6 hPa 0,0 l/m 5,9 km/h (2 Bft) O-NO 66 0 min 0 W/m 14,2 C 21,5 C 14,5 km/h (3 Bft)
22.08.2019 10:40 21,3 C 21,1 C 62 % 1032,6 hPa 0,0 l/m 9,8 km/h (2 Bft) O-NO 75 0 min 0 W/m 13,7 C 21,3 C 20,9 km/h (4 Bft)
22.08.2019 10:35 21,1 C 20,8 C 64 % 1032,5 hPa 0,0 l/m 7,6 km/h (2 Bft) NO 51 0 min 0 W/m 14,0 C 21,1 C 14,5 km/h (3 Bft)
22.08.2019 10:30 20,8 C 20,6 C 64 % 1032,6 hPa 0,0 l/m 8,3 km/h (2 Bft) N 5 0 min 0 W/m 13,7 C 20,8 C 16,1 km/h (3 Bft)
22.08.2019 10:25 20,6 C 20,5 C 64 % 1032,7 hPa 0,0 l/m 8,9 km/h (2 Bft) N 9 0 min 0 W/m 13,5 C 20,6 C 17,7 km/h (3 Bft)
22.08.2019 10:20 20,5 C 20,4 C 66 % 1032,8 hPa 0,0 l/m 6,9 km/h (2 Bft) NO 47 0 min 0 W/m 13,9 C 20,5 C 14,5 km/h (3 Bft)
22.08.2019 10:15 20,4 C 20,2 C 66 % 1032,8 hPa 0,0 l/m 7,5 km/h (2 Bft) O 87 0 min 0 W/m 13,8 C 20,4 C 14,5 km/h (3 Bft)
22.08.2019 10:10 20,2 C 20,1 C 69 % 1032,8 hPa 0,0 l/m 4,5 km/h (1 Bft) O-SO 107 0 min 0 W/m 14,3 C 20,2 C 11,3 km/h (2 Bft)
22.08.2019 10:05 20,1 C 19,9 C 69 % 1032,8 hPa 0,0 l/m 3,2 km/h (1 Bft) N 5 0 min 0 W/m 14,2 C 20,1 C 8,0 km/h (2 Bft)
22.08.2019 10:00 19,9 C 19,7 C 72 % 1032,9 hPa 0,0 l/m 3,3 km/h (1 Bft) SO 137 0 min 0 W/m 14,7 C 19,9 C 8,0 km/h (2 Bft)
22.08.2019 09:55 19,7 C 19,4 C 73 % 1032,8 hPa 0,0 l/m 4,1 km/h (1 Bft) S 190 0 min 0 W/m 14,7 C 19,7 C 9,7 km/h (2 Bft)
22.08.2019 09:50 19,4 C 19,1 C 75 % 1032,9 hPa 0,0 l/m 2,9 km/h (1 Bft) S-SO 165 0 min 0 W/m 14,8 C 19,4 C 6,4 km/h (2 Bft)
22.08.2019 09:45 19,1 C 18,8 C 76 % 1032,9 hPa 0,0 l/m 3,9 km/h (1 Bft) S 173 0 min 0 W/m 14,8 C 19,1 C 8,0 km/h (2 Bft)
22.08.2019 09:40 18,8 C 18,5 C 77 % 1032,9 hPa 0,0 l/m 4,5 km/h (1 Bft) S 191 0 min 0 W/m 14,7 C 18,8 C 8,0 km/h (2 Bft)
22.08.2019 09:35 18,5 C 18,2 C 76 % 1032,9 hPa 0,0 l/m 3,8 km/h (1 Bft) S-SW 193 0 min 0 W/m 14,2 C 18,5 C 8,0 km/h (2 Bft)
22.08.2019 09:30 18,2 C 17,9 C 77 % 1032,8 hPa 0,0 l/m 3,8 km/h (1 Bft) S-SW 194 0 min 0 W/m 14,1 C 18,2 C 4,8 km/h (1 Bft)
22.08.2019 09:25 17,9 C 17,7 C 78 % 1032,8 hPa 0,0 l/m 3,8 km/h (1 Bft) S-SW 198 0 min 0 W/m 14,0 C 17,9 C 6,4 km/h (2 Bft)
22.08.2019 09:20 17,7 C 17,4 C 77 % 1032,8 hPa 0,0 l/m 4,5 km/h (1 Bft) S 185 0 min 0 W/m 13,6 C 17,7 C 6,4 km/h (2 Bft)
22.08.2019 09:15 17,4 C 17,1 C 79 % 1032,8 hPa 0,0 l/m 2,9 km/h (1 Bft) S 189 0 min 0 W/m 13,7 C 17,4 C 6,4 km/h (2 Bft)
22.08.2019 09:10 17,1 C 16,7 C 80 % 1032,8 hPa 0,0 l/m 3,9 km/h (1 Bft) S 191 0 min 0 W/m 13,6 C 17,1 C 8,0 km/h (2 Bft)
22.08.2019 09:05 16,7 C 16,3 C 82 % 1032,8 hPa 0,0 l/m 3,5 km/h (1 Bft) S-SW 194 0 min 0 W/m 13,6 C 16,7 C 6,4 km/h (2 Bft)
22.08.2019 09:00 16,3 C 15,8 C 83 % 1032,8 hPa 0,0 l/m 3,5 km/h (1 Bft) S-SW 198 0 min 0 W/m 13,4 C 16,3 C 6,4 km/h (2 Bft)
22.08.2019 08:55 15,8 C 15,3 C 85 % 1032,8 hPa 0,0 l/m 2,8 km/h (1 Bft) S 191 0 min 0 W/m 13,3 C 15,8 C 6,4 km/h (2 Bft)
22.08.2019 08:50 15,3 C 14,8 C 86 % 1032,8 hPa 0,0 l/m 2,7 km/h (1 Bft) SO 144 0 min 0 W/m 13,0 C 15,3 C 8,0 km/h (2 Bft)
22.08.2019 08:45 14,8 C 14,3 C 88 % 1032,8 hPa 0,0 l/m 3,2 km/h (1 Bft) S 188 0 min 0 W/m 12,8 C 14,8 C 4,8 km/h (1 Bft)
22.08.2019 08:40 14,3 C 13,8 C 90 % 1032,8 hPa 0,0 l/m 3,4 km/h (1 Bft) S 188 0 min 0 W/m 12,7 C 14,3 C 4,8 km/h (1 Bft)
22.08.2019 08:35 13,8 C 13,2 C 91 % 1032,9 hPa 0,0 l/m 3,4 km/h (1 Bft) S 171 0 min 0 W/m 12,4 C 13,8 C 6,4 km/h (2 Bft)
22.08.2019 08:30 13,2 C 12,8 C 92 % 1032,9 hPa 0,0 l/m 3,1 km/h (1 Bft) S 184 0 min 0 W/m 11,9 C 13,2 C 6,4 km/h (2 Bft)
22.08.2019 08:25 12,8 C 12,2 C 92 % 1032,8 hPa 0,0 l/m 2,6 km/h (1 Bft) S 183 0 min 0 W/m 11,5 C 12,8 C 4,8 km/h (1 Bft)
22.08.2019 08:20 12,2 C 11,9 C 92 % 1032,9 hPa 0,0 l/m 1,9 km/h (1 Bft) S 183 0 min 0 W/m 10,9 C 12,2 C 4,8 km/h (1 Bft)
22.08.2019 08:15 11,9 C 11,8 C 92 % 1032,9 hPa 0,0 l/m 2,7 km/h (1 Bft) S 183 0 min 0 W/m 10,6 C 11,9 C 4,8 km/h (1 Bft)
22.08.2019 08:10 11,8 C 11,6 C 92 % 1032,9 hPa 0,0 l/m 2,7 km/h (1 Bft) S 189 0 min 0 W/m 10,5 C 11,8 C 4,8 km/h (1 Bft)
22.08.2019 08:05 11,6 C 11,4 C 93 % 1032,9 hPa 0,0 l/m 3,5 km/h (1 Bft) S 190 0 min 0 W/m 10,5 C 11,6 C 6,4 km/h (2 Bft)
22.08.2019 08:00 11,4 C 11,3 C 92 % 1032,8 hPa 0,0 l/m 3,3 km/h (1 Bft) S 187 0 min 0 W/m 10,1 C 11,4 C 6,4 km/h (2 Bft)
22.08.2019 07:55 11,3 C 11,1 C 93 % 1032,7 hPa 0,0 l/m 3,8 km/h (1 Bft) S 186 0 min 0 W/m 10,2 C 11,3 C 8,0 km/h (2 Bft)
22.08.2019 07:50 11,1 C 10,9 C 92 % 1032,7 hPa 0,0 l/m 4,1 km/h (1 Bft) S 177 0 min 0 W/m 9,8 C 11,1 C 6,4 km/h (2 Bft)
22.08.2019 07:45 10,9 C 10,8 C 92 % 1032,7 hPa 0,0 l/m 2,5 km/h (1 Bft) SW 225 0 min 0 W/m 9,7 C 10,9 C 4,8 km/h (1 Bft)
22.08.2019 07:40 10,8 C 10,7 C 92 % 1032,7 hPa 0,0 l/m 2,0 km/h (1 Bft) SW 225 0 min 0 W/m 9,6 C 10,8 C 4,8 km/h (1 Bft)
22.08.2019 07:35 10,7 C 10,7 C 92 % 1032,7 hPa 0,0 l/m 1,5 km/h (1 Bft) SW 226 0 min 0 W/m 9,5 C 10,7 C 3,2 km/h (1 Bft)
22.08.2019 07:30 10,7 C 10,6 C 92 % 1032,6 hPa 0,0 l/m 1,1 km/h (1 Bft) SW 226 0 min 0 W/m 9,5 C 10,7 C 3,2 km/h (1 Bft)
22.08.2019 07:25 10,6 C 10,6 C 92 % 1032,7 hPa 0,0 l/m 1,4 km/h (1 Bft) SW 226 0 min 0 W/m 9,4 C 10,6 C 4,8 km/h (1 Bft)
22.08.2019 07:20 10,6 C 10,5 C 92 % 1032,7 hPa 0,0 l/m 1,4 km/h (1 Bft) SW 226 0 min 0 W/m 9,4 C 10,6 C 3,2 km/h (1 Bft)
22.08.2019 07:15 10,5 C 10,4 C 92 % 1032,7 hPa 0,0 l/m 0,5 km/h (0 Bft) SW 227 0 min 0 W/m 9,3 C 10,5 C 1,6 km/h (1 Bft)
22.08.2019 07:10 10,4 C 10,4 C 92 % 1032,7 hPa 0,0 l/m 0,4 km/h (0 Bft) SW 227 0 min 0 W/m 9,2 C 10,4 C 1,6 km/h (1 Bft)
22.08.2019 07:05 10,4 C 10,4 C 91 % 1032,6 hPa 0,0 l/m 0,3 km/h (0 Bft) N-NW 338 0 min 0 W/m 9,0 C 10,4 C 3,2 km/h (1 Bft)
22.08.2019 07:00 10,4 C 10,4 C 91 % 1032,6 hPa 0,0 l/m 0,0 km/h (0 Bft) N-NW 338 0 min 0 W/m 9,0 C 10,4 C 0,0 km/h (0 Bft)
22.08.2019 06:55 10,4 C 10,4 C 91 % 1032,6 hPa 0,0 l/m 0,0 km/h (0 Bft) N-NW 338 0 min 0 W/m 9,0 C 10,4 C 0,0 km/h (0 Bft)
22.08.2019 06:50 10,4 C 10,4 C 91 % 1032,5 hPa 0,0 l/m 0,0 km/h (0 Bft) N-NW 338 0 min 0 W/m 9,0 C 10,4 C 0,0 km/h (0 Bft)
22.08.2019 06:45 10,4 C 10,4 C 91 % 1032,4 hPa 0,0 l/m 0,0 km/h (0 Bft) N-NW 338 0 min 0 W/m 9,0 C 10,4 C 0,0 km/h (0 Bft)
22.08.2019 06:40 10,4 C 10,4 C 91 % 1032,4 hPa 0,0 l/m 0,0 km/h (0 Bft) N-NW 338 0 min 0 W/m 9,0 C 10,4 C 0,0 km/h (0 Bft)
22.08.2019 06:35 10,5 C 10,5 C 91 % 1032,4 hPa 0,0 l/m 0,0 km/h (0 Bft) N-NW 338 0 min 0 W/m 9,1 C 10,5 C 0,0 km/h (0 Bft)
22.08.2019 06:30 10,6 C 10,6 C 91 % 1032,4 hPa 0,0 l/m 0,0 km/h (0 Bft) N-NW 338 0 min 0 W/m 9,2 C 10,6 C 0,0 km/h (0 Bft)
22.08.2019 06:25 10,6 C 10,6 C 91 % 1032,4 hPa 0,0 l/m 0,0 km/h (0 Bft) N-NW 338 0 min 0 W/m 9,2 C 10,6 C 0,0 km/h (0 Bft)
22.08.2019 06:20 10,6 C 10,6 C 91 % 1032,4 hPa 0,0 l/m 0,0 km/h (0 Bft) N-NW 338 0 min 0 W/m 9,2 C 10,6 C 0,0 km/h (0 Bft)
22.08.2019 06:15 10,6 C 10,6 C 91 % 1032,5 hPa 0,0 l/m 0,0 km/h (0 Bft) N-NW 338 0 min 0 W/m 9,2 C 10,6 C 0,0 km/h (0 Bft)
22.08.2019 06:10 10,6 C 10,6 C 90 % 1032,4 hPa 0,0 l/m 0,0 km/h (0 Bft) N-NW 338 0 min 0 W/m 9,0 C 10,6 C 0,0 km/h (0 Bft)
22.08.2019 06:05 10,7 C 10,7 C 90 % 1032,3 hPa 0,0 l/m 0,0 km/h (0 Bft) N-NW 338 0 min 0 W/m 9,1 C 10,7 C 0,0 km/h (0 Bft)
22.08.2019 06:00 10,7 C 10,7 C 90 % 1032,4 hPa 0,0 l/m 0,0 km/h (0 Bft) N-NW 338 0 min 0 W/m 9,1 C 10,7 C 0,0 km/h (0 Bft)
22.08.2019 05:55 10,7 C 10,7 C 90 % 1032,5 hPa 0,0 l/m 0,0 km/h (0 Bft) N-NW 338 0 min 0 W/m 9,1 C 10,7 C 1,6 km/h (1 Bft)
22.08.2019 05:50 10,8 C 10,8 C 90 % 1032,5 hPa 0,0 l/m 0,0 km/h (0 Bft) N-NW 338 0 min 0 W/m 9,2 C 10,8 C 0,0 km/h (0 Bft)
22.08.2019 05:45 10,8 C 10,8 C 90 % 1032,6 hPa 0,0 l/m 0,0 km/h (0 Bft) N-NW 338 0 min 0 W/m 9,2 C 10,8 C 0,0 km/h (0 Bft)
22.08.2019 05:40 10,9 C 10,9 C 90 % 1032,6 hPa 0,0 l/m 0,0 km/h (0 Bft) N-NW 338 0 min 0 W/m 9,3 C 10,9 C 0,0 km/h (0 Bft)
22.08.2019 05:35 10,9 C 10,9 C 90 % 1032,6 hPa 0,0 l/m 0,0 km/h (0 Bft) N-NW 338 0 min 0 W/m 9,3 C 10,9 C 1,6 km/h (1 Bft)
22.08.2019 05:30 11,0 C 11,0 C 89 % 1032,6 hPa 0,0 l/m 0,6 km/h (0 Bft) N-NW 338 0 min 0 W/m 9,3 C 11,0 C 1,6 km/h (1 Bft)
22.08.2019 05:25 11,1 C 11,1 C 89 % 1032,5 hPa 0,0 l/m 0,0 km/h (0 Bft) N-NW 338 0 min 0 W/m 9,4 C 11,1 C 1,6 km/h (1 Bft)
22.08.2019 05:20 11,2 C 11,2 C 89 % 1032,5 hPa 0,0 l/m 1,1 km/h (1 Bft) N-NW 338 0 min 0 W/m 9,5 C 11,2 C 3,2 km/h (1 Bft)
22.08.2019 05:15 11,3 C 11,3 C 89 % 1032,6 hPa 0,0 l/m 0,0 km/h (0 Bft) N-NW 338 0 min 0 W/m 9,6 C 11,3 C 0,0 km/h (0 Bft)
22.08.2019 05:10 11,3 C 11,3 C 89 % 1032,5 hPa 0,0 l/m 0,0 km/h (0 Bft) N-NW 338 0 min 0 W/m 9,6 C 11,3 C 1,6 km/h (1 Bft)
22.08.2019 05:05 11,4 C 11,4 C 89 % 1032,5 hPa 0,0 l/m 0,0 km/h (0 Bft) N-NW 338 0 min 0 W/m 9,7 C 11,4 C 0,0 km/h (0 Bft)
22.08.2019 05:00 11,4 C 11,4 C 89 % 1032,6 hPa 0,0 l/m 0,0 km/h (0 Bft) N-NW 338 0 min 0 W/m 9,7 C 11,4 C 0,0 km/h (0 Bft)
22.08.2019 04:55 11,5 C 11,4 C 89 % 1032,5 hPa 0,0 l/m 0,2 km/h (0 Bft) N-NW 338 0 min 0 W/m 9,8 C 11,5 C 1,6 km/h (1 Bft)
22.08.2019 04:50 11,5 C 11,5 C 89 % 1032,6 hPa 0,0 l/m 0,6 km/h (0 Bft) N-NW 342 0 min 0 W/m 9,8 C 11,5 C 1,6 km/h (1 Bft)
22.08.2019 04:45 11,6 C 11,6 C 89 % 1032,5 hPa 0,0 l/m 2,6 km/h (1 Bft) N-NW 342 0 min 0 W/m 9,8 C 11,6 C 3,2 km/h (1 Bft)
22.08.2019 04:40 11,7 C 11,7 C 88 % 1032,6 hPa 0,0 l/m 2,2 km/h (1 Bft) N-NW 342 0 min 0 W/m 9,8 C 11,7 C 3,2 km/h (1 Bft)
22.08.2019 04:35 11,7 C 11,7 C 88 % 1032,5 hPa 0,0 l/m 2,6 km/h (1 Bft) N-NW 342 0 min 0 W/m 9,8 C 11,7 C 4,8 km/h (1 Bft)
22.08.2019 04:30 11,8 C 11,8 C 88 % 1032,5 hPa 0,0 l/m 2,2 km/h (1 Bft) N-NW 340 0 min 0 W/m 9,9 C 11,8 C 3,2 km/h (1 Bft)
22.08.2019 04:25 11,8 C 11,8 C 88 % 1032,5 hPa 0,0 l/m 2,5 km/h (1 Bft) N-NW 340 0 min 0 W/m 9,9 C 11,8 C 3,2 km/h (1 Bft)
22.08.2019 04:20 11,9 C 11,9 C 88 % 1032,4 hPa 0,0 l/m 2,0 km/h (1 Bft) N-NW 340 0 min 0 W/m 10,0 C 11,9 C 3,2 km/h (1 Bft)
22.08.2019 04:15 11,9 C 11,9 C 88 % 1032,5 hPa 0,0 l/m 2,3 km/h (1 Bft) N-NW 340 0 min 0 W/m 10,0 C 11,9 C 3,2 km/h (1 Bft)
22.08.2019 04:10 11,9 C 11,9 C 88 % 1032,5 hPa 0,0 l/m 2,2 km/h (1 Bft) N-NW 340 0 min 0 W/m 10,0 C 11,9 C 3,2 km/h (1 Bft)
22.08.2019 04:05 12,0 C 12,0 C 88 % 1032,4 hPa 0,0 l/m 2,3 km/h (1 Bft) N-NW 340 0 min 0 W/m 10,1 C 12,0 C 4,8 km/h (1 Bft)
22.08.2019 04:00 12,0 C 12,0 C 88 % 1032,4 hPa 0,0 l/m 1,7 km/h (1 Bft) N-NW 340 0 min 0 W/m 10,1 C 12,0 C 3,2 km/h (1 Bft)
22.08.2019 03:55 12,0 C 12,0 C 88 % 1032,4 hPa 0,0 l/m 3,0 km/h (1 Bft) N-NW 344 0 min 0 W/m 10,1 C 12,0 C 4,8 km/h (1 Bft)
22.08.2019 03:50 12,0 C 12,0 C 87 % 1032,5 hPa 0,0 l/m 2,5 km/h (1 Bft) N 360 0 min 0 W/m 9,9 C 12,0 C 4,8 km/h (1 Bft)
22.08.2019 03:45 12,1 C 12,1 C 87 % 1032,5 hPa 0,0 l/m 2,5 km/h (1 Bft) N 360 0 min 0 W/m 10,0 C 12,1 C 3,2 km/h (1 Bft)
22.08.2019 03:40 12,1 C 12,1 C 87 % 1032,6 hPa 0,0 l/m 1,9 km/h (1 Bft) N 360 0 min 0 W/m 10,0 C 12,1 C 3,2 km/h (1 Bft)
22.08.2019 03:35 12,1 C 12,1 C 87 % 1032,6 hPa 0,0 l/m 0,6 km/h (0 Bft) N 360 0 min 0 W/m 10,0 C 12,1 C 1,6 km/h (1 Bft)
22.08.2019 03:30 12,2 C 12,2 C 87 % 1032,6 hPa 0,0 l/m 0,0 km/h (0 Bft) N 360 0 min 0 W/m 10,1 C 12,2 C 0,0 km/h (0 Bft)
22.08.2019 03:25 12,2 C 12,2 C 87 % 1032,6 hPa 0,0 l/m 0,0 km/h (0 Bft) N 360 0 min 0 W/m 10,1 C 12,2 C 0,0 km/h (0 Bft)
22.08.2019 03:20 12,2 C 12,2 C 87 % 1032,6 hPa 0,0 l/m 0,0 km/h (0 Bft) N 360 0 min 0 W/m 10,1 C 12,2 C 0,0 km/h (0 Bft)
22.08.2019 03:15 12,3 C 12,3 C 86 % 1032,7 hPa 0,0 l/m 0,7 km/h (0 Bft) N 360 0 min 0 W/m 10,0 C 12,3 C 1,6 km/h (1 Bft)
22.08.2019 03:10 12,3 C 12,2 C 86 % 1032,7 hPa 0,0 l/m 1,9 km/h (1 Bft) N 360 0 min 0 W/m 10,0 C 12,3 C 3,2 km/h (1 Bft)
22.08.2019 03:05 12,3 C 12,2 C 86 % 1032,6 hPa 0,0 l/m 2,2 km/h (1 Bft) N 360 0 min 0 W/m 10,0 C 12,3 C 3,2 km/h (1 Bft)
22.08.2019 03:00 12,3 C 12,2 C 86 % 1032,6 hPa 0,0 l/m 2,4 km/h (1 Bft) N 360 0 min 0 W/m 10,0 C 12,3 C 4,8 km/h (1 Bft)
22.08.2019 02:55 12,3 C 12,3 C 86 % 1032,6 hPa 0,0 l/m 2,0 km/h (1 Bft) N 360 0 min 0 W/m 10,0 C 12,3 C 3,2 km/h (1 Bft)
22.08.2019 02:50 12,3 C 12,3 C 86 % 1032,6 hPa 0,0 l/m 2,2 km/h (1 Bft) N 360 0 min 0 W/m 10,0 C 12,3 C 3,2 km/h (1 Bft)
22.08.2019 02:45 12,3 C 12,3 C 85 % 1032,6 hPa 0,0 l/m 2,1 km/h (1 Bft) N 360 0 min 0 W/m 9,9 C 12,3 C 3,2 km/h (1 Bft)
22.08.2019 02:40 12,3 C 12,3 C 85 % 1032,6 hPa 0,0 l/m 2,5 km/h (1 Bft) N 360 0 min 0 W/m 9,9 C 12,3 C 4,8 km/h (1 Bft)
22.08.2019 02:35 12,4 C 12,4 C 85 % 1032,6 hPa 0,0 l/m 2,7 km/h (1 Bft) N 360 0 min 0 W/m 9,9 C 12,4 C 4,8 km/h (1 Bft)
22.08.2019 02:30 12,4 C 12,4 C 85 % 1032,6 hPa 0,0 l/m 2,7 km/h (1 Bft) N 360 0 min 0 W/m 9,9 C 12,4 C 3,2 km/h (1 Bft)
22.08.2019 02:25 12,5 C 12,5 C 84 % 1032,6 hPa 0,0 l/m 2,7 km/h (1 Bft) N 360 0 min 0 W/m 9,9 C 12,5 C 4,8 km/h (1 Bft)
22.08.2019 02:20 12,6 C 12,6 C 84 % 1032,6 hPa 0,0 l/m 2,4 km/h (1 Bft) N 360 0 min 0 W/m 10,0 C 12,6 C 3,2 km/h (1 Bft)
22.08.2019 02:15 12,6 C 12,6 C 84 % 1032,7 hPa 0,0 l/m 1,4 km/h (1 Bft) N 360 0 min 0 W/m 10,0 C 12,6 C 3,2 km/h (1 Bft)
22.08.2019 02:10 12,7 C 12,7 C 83 % 1032,6 hPa 0,0 l/m 1,8 km/h (1 Bft) N 360 0 min 0 W/m 9,9 C 12,7 C 3,2 km/h (1 Bft)
22.08.2019 02:05 12,8 C 12,8 C 83 % 1032,7 hPa 0,0 l/m 1,3 km/h (1 Bft) N 360 0 min 0 W/m 10,0 C 12,8 C 3,2 km/h (1 Bft)
22.08.2019 02:00 12,9 C 12,9 C 82 % 1032,6 hPa 0,0 l/m 1,2 km/h (1 Bft) N 360 0 min 0 W/m 9,9 C 12,9 C 3,2 km/h (1 Bft)
22.08.2019 01:55 13,0 C 12,9 C 82 % 1032,7 hPa 0,0 l/m 2,1 km/h (1 Bft) N 360 0 min 0 W/m 10,0 C 13,0 C 3,2 km/h (1 Bft)
22.08.2019 01:50 13,1 C 13,1 C 82 % 1032,8 hPa 0,0 l/m 2,0 km/h (1 Bft) N 360 0 min 0 W/m 10,1 C 13,1 C 3,2 km/h (1 Bft)
22.08.2019 01:45 13,2 C 13,2 C 81 % 1032,8 hPa 0,0 l/m 1,6 km/h (1 Bft) N 360 0 min 0 W/m 10,0 C 13,2 C 3,2 km/h (1 Bft)
22.08.2019 01:40 13,3 C 13,3 C 80 % 1032,8 hPa 0,0 l/m 2,5 km/h (1 Bft) N 360 0 min 0 W/m 9,9 C 13,3 C 3,2 km/h (1 Bft)
22.08.2019 01:35 13,4 C 13,4 C 80 % 1032,8 hPa 0,0 l/m 3,0 km/h (1 Bft) N 360 0 min 0 W/m 10,0 C 13,4 C 4,8 km/h (1 Bft)
22.08.2019 01:30 13,5 C 13,5 C 79 % 1032,9 hPa 0,0 l/m 3,4 km/h (1 Bft) N 360 0 min 0 W/m 9,9 C 13,5 C 6,4 km/h (2 Bft)
22.08.2019 01:25 13,6 C 13,6 C 79 % 1032,9 hPa 0,0 l/m 3,8 km/h (1 Bft) N 350 0 min 0 W/m 10,0 C 13,6 C 6,4 km/h (2 Bft)
22.08.2019 01:20 13,7 C 13,7 C 79 % 1032,9 hPa 0,0 l/m 3,7 km/h (1 Bft) N 355 0 min 0 W/m 10,1 C 13,7 C 6,4 km/h (2 Bft)
22.08.2019 01:15 13,8 C 13,8 C 79 % 1033,0 hPa 0,0 l/m 3,0 km/h (1 Bft) NW 321 0 min 0 W/m 10,2 C 13,8 C 4,8 km/h (1 Bft)
22.08.2019 01:10 13,9 C 13,9 C 78 % 1033,1 hPa 0,0 l/m 2,7 km/h (1 Bft) N 355 0 min 0 W/m 10,1 C 13,9 C 4,8 km/h (1 Bft)
22.08.2019 01:05 14,0 C 14,0 C 78 % 1033,1 hPa 0,0 l/m 2,8 km/h (1 Bft) N 355 0 min 0 W/m 10,2 C 14,0 C 4,8 km/h (1 Bft)
22.08.2019 01:00 14,1 C 14,1 C 77 % 1033,2 hPa 0,0 l/m 3,1 km/h (1 Bft) N 355 0 min 0 W/m 10,1 C 14,1 C 4,8 km/h (1 Bft)
22.08.2019 00:55 14,2 C 14,2 C 77 % 1033,2 hPa 0,0 l/m 3,6 km/h (1 Bft) N-NW 346 0 min 0 W/m 10,2 C 14,2 C 6,4 km/h (2 Bft)
22.08.2019 00:50 14,2 C 14,2 C 77 % 1033,2 hPa 0,0 l/m 3,1 km/h (1 Bft) N-NW 330 0 min 0 W/m 10,2 C 14,2 C 4,8 km/h (1 Bft)
22.08.2019 00:45 14,2 C 14,2 C 77 % 1033,2 hPa 0,0 l/m 3,5 km/h (1 Bft) N 360 0 min 0 W/m 10,2 C 14,2 C 6,4 km/h (2 Bft)
22.08.2019 00:40 14,2 C 14,2 C 77 % 1033,2 hPa 0,0 l/m 4,1 km/h (1 Bft) N-NW 329 0 min 0 W/m 10,2 C 14,2 C 6,4 km/h (2 Bft)
22.08.2019 00:35 14,3 C 14,3 C 77 % 1033,2 hPa 0,0 l/m 5,1 km/h (1 Bft) NW 311 0 min 0 W/m 10,3 C 14,3 C 8,0 km/h (2 Bft)
22.08.2019 00:30 14,3 C 14,3 C 77 % 1033,2 hPa 0,0 l/m 5,2 km/h (1 Bft) NW 321 0 min 0 W/m 10,3 C 14,3 C 8,0 km/h (2 Bft)
22.08.2019 00:25 14,3 C 14,3 C 77 % 1033,2 hPa 0,0 l/m 3,2 km/h (1 Bft) W-NW 286 0 min 0 W/m 10,3 C 14,3 C 6,4 km/h (2 Bft)
22.08.2019 00:20 14,4 C 14,4 C 77 % 1033,3 hPa 0,0 l/m 3,4 km/h (1 Bft) W-NW 286 0 min 0 W/m 10,4 C 14,4 C 4,8 km/h (1 Bft)
22.08.2019 00:15 14,4 C 14,4 C 77 % 1033,2 hPa 0,0 l/m 3,5 km/h (1 Bft) W-NW 286 0 min 0 W/m 10,4 C 14,4 C 4,8 km/h (1 Bft)
22.08.2019 00:10 14,5 C 14,5 C 77 % 1033,2 hPa 0,0 l/m 3,2 km/h (1 Bft) NW 315 0 min 0 W/m 10,5 C 14,5 C 4,8 km/h (1 Bft)
22.08.2019 00:05 14,6 C 14,6 C 77 % 1033,3 hPa 0,0 l/m 2,9 km/h (1 Bft) NW 318 0 min 0 W/m 10,6 C 14,6 C 4,8 km/h (1 Bft)
22.08.2019 00:00 14,6 C 14,6 C 77 % 1033,3 hPa 0,0 l/m 2,7 km/h (1 Bft) NW 311 0 min 0 W/m 10,6 C 14,6 C 6,4 km/h (2 Bft)
_ Min-Zeit 06:40 06:40 13:30 13:40 - 03:20 - - - - 06:40 06:40 03:20
Minimum _ 10.4 C 10.4 C 50 % 1031.6 hPa - 0.0 km/h (0 Bft) - - - - 9.0 C 10.4 C 0.0 km/h (0 Bft)
_ Max-Zeit 13:20 13:20 07:55 00:00 00:00 11:00 - - 00:00 00:00 09:50 13:20 11:40
Maximum _ 24.4 C 24.3 C 93 % 1033.3 hPa 0.0 l/m 12.3 km/h
NO (3 Bft)
- - 0 min 0 W/m 14.8 C 24.4 C 24.1 km/h
N-NO (4 Bft)
Durchschnitt _ 15.5 C 15.4 C 78 % 1032.6 hPa #0.0 l/m 3.4 km/h (1 Bft) N - #0 min. 0 W/m 11.3 C 15.5 C 6.9 km/h (2 Bft)